This is the latest recevied weather packets stored in our database for station/object WS2Z. If no packets are shown the sender has not sent any weather packets the latest 10 day(s).
| Time | Temp. | Humidity | Pressure | Rain* | Wind** | Luminosity | Snow |
|---|---|---|---|---|---|---|---|
| 1777992968 | 27.78° C | 70% | 1015.8 hPa | 0 mm | - | 128 W/m² | - |
| 1777992668 | 28.33° C | 69% | 1015.7 hPa | 0 mm | - | 164 W/m² | - |
| 1777992365 | 27.78° C | 70% | 1015.8 hPa | 0 mm | - | 257 W/m² | - |
| 1777992062 | 27.78° C | 71% | 1015.6 hPa | 0 mm | - | 154 W/m² | - |
| 1777991760 | 27.78° C | 71% | 1015.6 hPa | 0 mm | - | 291 W/m² | - |
| 1777991456 | 27.78° C | 72% | 1015.8 hPa | 0 mm | - | 470 W/m² | - |
| 1777991153 | 27.78° C | 74% | 1015.8 hPa | 0 mm | - | 507 W/m² | - |
| 1777990851 | 27.22° C | 75% | 1015.6 hPa | 0 mm | - | 420 W/m² | - |
| 1777990548 | 27.22° C | 76% | 1015.5 hPa | 0 mm | - | 590 W/m² | - |
| 1777989941 | 26.11° C | 78% | 1015.7 hPa | 0 mm | - | 558 W/m² | - |
| 1777989638 | 25.56° C | 81% | 1015.8 hPa | 0 mm | - | 534 W/m² | - |
| 1777989335 | 25.56° C | 80% | 1015.7 hPa | 0 mm | - | 525 W/m² | - |
| 1777989031 | 25.56° C | 81% | 1015.9 hPa | 0 mm | - | 515 W/m² | - |
| 1777988727 | 25° C | 82% | 1015.7 hPa | 0 mm | - | 500 W/m² | - |
| 1777988424 | 24.44° C | 87% | 1015.8 hPa | 0 mm | - | 462 W/m² | - |
| 1777988121 | 23.33° C | 88% | 1015.7 hPa | 0 mm | - | 463 W/m² | - |
| 1777987817 | 23.33° C | 88% | 1015.6 hPa | 0 mm | - | 444 W/m² | - |
| 1777987514 | 23.33° C | 89% | 1015.6 hPa | 0 mm | - | 426 W/m² | - |
| 1777987212 | 22.78° C | 90% | 1015.8 hPa | 0 mm | - | 250 W/m² | - |
| 1777986908 | 22.78° C | 91% | 1015.8 hPa | 0 mm | - | 103 W/m² | - |
| 1777986606 | 22.22° C | 91% | 1015.6 hPa | 0 mm | - | 97 W/m² | - |
| 1777986304 | 22.22° C | 93% | 1015.6 hPa | 0 mm | - | 86 W/m² | - |
| 1777986002 | 21.67° C | 94% | 1015.5 hPa | 0 mm | - | 84 W/m² | - |
| 1777985698 | 21.67° C | 94% | 1015.4 hPa | 0 mm | - | 96 W/m² | - |
| 1777985395 | 21.67° C | 94% | 1015.6 hPa | 0 mm | - | 119 W/m² | - |
* Rain latest hour (hover to see other rain measurements)
** Current wind speed in m/s (hover to see current wind gust speed)